| time (UTC) | temp F | wind direction | speed MPH | gust MPH | rain 1hr in | rain 24hr in | rain mn in | humidity % | barometer mb |
| 20260505080029 | 58 | 167 | 1.0 | 9.0 | 0.00 | 0.00 | 0.00 | 51 | 1008.1 |
| 20260505075042 | 58 | 145 | 2.0 | 6.0 | 0.00 | 0.00 | 0.00 | 51 | 1008.3 |
| 20260505074048 | 58 | 146 | 1.0 | 6.0 | 0.00 | 0.00 | 0.00 | 51 | 1008.4 |
| 20260505073038 | 59 | 142 | 1.0 | 4.0 | 0.00 | 0.00 | 0.00 | 51 | 1008.4 |
| 20260505072021 | 59 | 161 | 4.0 | 17.0 | 0.00 | 0.00 | 0.00 | 50 | 1008.4 |
| 20260505071016 | 59 | 359 | 2.0 | 7.0 | 0.00 | 0.00 | 0.00 | 49 | 1008.6 |
| 20260505070020 | 59 | 156 | 1.0 | 8.0 | 0.00 | 0.00 | 0.00 | 48 | 1008.6 |
| 20260505065031 | 59 | 107 | 4.0 | 11.0 | 0.00 | 0.00 | 0.00 | 49 | 1008.5 |
| 20260505064015 | 59 | 144 | 3.0 | 11.0 | 0.00 | 0.00 | 0.00 | 50 | 1008.5 |
| 20260505063026 | 60 | 172 | 4.0 | 12.0 | 0.00 | 0.00 | 0.00 | 50 | 1008.5 |
| 20260505062039 | 60 | 359 | 4.0 | 10.0 | 0.00 | 0.00 | 0.00 | 50 | 1008.5 |
| 20260505061029 | 60 | 220 | 3.0 | 12.0 | 0.00 | 0.00 | 0.00 | 50 | 1008.4 |
| 20260505060041 | 61 | 204 | 1.0 | 9.0 | 0.00 | 0.00 | 0.00 | 50 | 1008.3 |
| 20260505055025 | 61 | 181 | 1.0 | 4.0 | 0.00 | 0.00 | 0.00 | 48 | 1008.0 |
| 20260505054037 | 61 | 226 | 0.0 | 3.0 | 0.00 | 0.00 | 0.00 | 47 | 1007.7 |
| 20260505053020 | 62 | 187 | 0.0 | 3.0 | 0.00 | 0.00 | 0.00 | 46 | 1007.6 |
| 20260505052030 | 62 | 181 | 0.0 | 3.0 | 0.00 | 0.00 | 0.00 | 46 | 1007.4 |
| 20260505051014 | 62 | 200 | 1.0 | 4.0 | 0.00 | 0.00 | 0.00 | 46 | 1007.4 |
| 20260505041029 | 65 | 166 | 3.0 | 7.0 | 0.00 | 0.00 | 0.00 | 39 | 1006.5 |
| 20260505040040 | 65 | 174 | 1.0 | 6.0 | 0.00 | 0.00 | 0.00 | 38 | 1006.4 |
| 20260505035030 | 66 | 164 | 2.0 | 10.0 | 0.00 | 0.00 | 0.00 | 36 | 1006.4 |
| 20260505034014 | 66 | 211 | 4.0 | 8.0 | 0.00 | 0.00 | 0.00 | 35 | 1006.3 |
| 20260505033025 | 66 | 185 | 0.0 | 0.0 | 0.00 | 0.00 | 0.00 | 34 | 1006.0 |
| 20260505032035 | 66 | 190 | 0.0 | 0.0 | 0.00 | 0.00 | 0.00 | 34 | 1005.8 |
| 20260505031040 | 67 | 189 | 0.0 | 0.0 | 0.00 | 0.00 | 0.00 | 33 | 1005.7 |
| 20260505030031 | 67 | 189 | 0.0 | 0.0 | 0.00 | 0.00 | 0.00 | 32 | 1005.5 |
| 20260505025020 | 68 | 189 | 0.0 | 2.0 | 0.00 | 0.00 | 0.00 | 32 | 1005.4 |
| 20260505024022 | 68 | 201 | 0.0 | 3.0 | 0.00 | 0.00 | 0.00 | 32 | 1005.4 |
| 20260505023014 | 68 | 193 | 0.0 | 3.0 | 0.00 | 0.00 | 0.00 | 31 | 1005.3 |
| 20260505022045 | 69 | 222 | 0.0 | 9.0 | 0.00 | 0.00 | 0.00 | 31 | 1005.2 |
| 20260505021036 | 69 | 226 | 0.0 | 5.0 | 0.00 | 0.00 | 0.00 | 30 | 1005.1 |
| 20260505020020 | 70 | 206 | 2.0 | 9.0 | 0.00 | 0.00 | 0.00 | 29 | 1005.0 |
| 20260505015030 | 70 | 212 | 0.0 | 7.0 | 0.00 | 0.00 | 0.00 | 29 | 1005.0 |
| 20260505014020 | 70 | 218 | 1.0 | 6.0 | 0.00 | 0.00 | 0.00 | 28 | 1005.0 |
| 20260505013024 | 71 | 187 | 3.0 | 9.0 | 0.00 | 0.00 | 0.00 | 28 | 1005.1 |
| 20260505012015 | 71 | 211 | 1.0 | 6.0 | 0.00 | 0.00 | 0.00 | 28 | 1005.1 |
| 20260505011020 | 71 | 185 | 4.0 | 7.0 | 0.00 | 0.00 | 0.00 | 28 | 1005.1 |
| 20260505010032 | 71 | 224 | 3.0 | 10.0 | 0.00 | 0.00 | 0.00 | 29 | 1005.3 |
| 20260505005023 | 71 | 183 | 5.0 | 11.0 | 0.00 | 0.00 | 0.00 | 29 | 1005.4 |
| 20260505004034 | 72 | 168 | 5.0 | 11.0 | 0.00 | 0.00 | 0.00 | 29 | 1005.4 |
| 20260505003018 | 72 | 150 | 1.0 | 13.0 | 0.00 | 0.00 | 0.00 | 28 | 1005.4 |
| 20260505002029 | 73 | 220 | 3.0 | 14.0 | 0.00 | 0.00 | 0.00 | 27 | 1005.6 |
| 20260505001041 | 73 | 237 | 3.0 | 12.0 | 0.00 | 0.00 | 0.00 | 26 | 1005.6 |
| 20260505000051 | 73 | 173 | 1.0 | 11.0 | 0.00 | 0.00 | 0.00 | 25 | 1005.7 |
| 20260504235041 | 74 | 235 | 4.0 | 10.0 | 0.00 | 0.00 | 0.00 | 24 | 1005.7 |
| 20260504234024 | 74 | 359 | 3.0 | 11.0 | 0.00 | 0.00 | 0.00 | 24 | 1005.6 |
| 20260504233016 | 74 | 207 | 3.0 | 12.0 | 0.00 | 0.00 | 0.00 | 24 | 1005.7 |
| 20260504232047 | 73 | 247 | 3.0 | 14.0 | 0.00 | 0.00 | 0.00 | 25 | 1005.8 |
| 20260504231038 | 74 | 218 | 3.0 | 15.0 | 0.00 | 0.00 | 0.00 | 26 | 1005.7 |
| 20260504230022 | 74 | 248 | 5.0 | 11.0 | 0.00 | 0.00 | 0.00 | 26 | 1005.7 |
| 20260504225034 | 74 | 253 | 5.0 | 16.0 | 0.00 | 0.00 | 0.00 | 27 | 1005.7 |
| 20260504224018 | 73 | 230 | 6.0 | 16.0 | 0.00 | 0.00 | 0.00 | 27 | 1005.8 |
| 20260504223013 | 74 | 260 | 7.0 | 15.0 | 0.00 | 0.00 | 0.00 | 27 | 1005.7 |
| 20260504222041 | 77 | 257 | 2.0 | 10.0 | 0.00 | 0.00 | 0.00 | 21 | 1005.7 |
| 20260504221024 | 77 | 283 | 1.0 | 8.0 | 0.00 | 0.00 | 0.00 | 22 | 1005.8 |
| 20260504220019 | 75 | 251 | 1.0 | 8.0 | 0.00 | 0.00 | 0.00 | 22 | 1005.9 |
| 20260504215030 | 76 | 268 | 0.0 | 0.0 | 0.00 | 0.00 | 0.00 | 22 | 1006.0 |
| 20260504214014 | 76 | 359 | 0.0 | 10.0 | 0.00 | 0.00 | 0.00 | 21 | 1006.2 |
| 20260504213046 | 76 | 279 | 2.0 | 8.0 | 0.00 | 0.00 | 0.00 | 20 | 1006.3 |
| 20260504212016 | 76 | 233 | 3.0 | 9.0 | 0.00 | 0.00 | 0.00 | 22 | 1006.5 |
| 20260504211020 | 75 | 248 | 0.0 | 4.0 | 0.00 | 0.00 | 0.00 | 22 | 1006.6 |
| 20260504210100 | 76 | 283 | 0.0 | 8.0 | 0.00 | 0.00 | 0.00 | 21 | 1006.7 |
| 20260504205023 | 76 | 264 | 0.0 | 5.0 | 0.00 | 0.00 | 0.00 | 21 | 1006.8 |
| 20260504204034 | 75 | 4 | 0.0 | 4.0 | 0.00 | 0.00 | 0.00 | 21 | 1006.9 |
| 20260504203019 | 75 | 260 | 2.0 | 8.0 | 0.00 | 0.00 | 0.00 | 20 | 1007.0 |
| 20260504202030 | 75 | 289 | 0.0 | 5.0 | 0.00 | 0.00 | 0.00 | 23 | 1007.1 |
| 20260504201042 | 74 | 269 | 2.0 | 10.0 | 0.00 | 0.00 | 0.00 | 23 | 1007.2 |
| 20260504200025 | 74 | 359 | 0.0 | 8.0 | 0.00 | 0.00 | 0.00 | 24 | 1007.3 |
| 20260504195016 | 74 | 251 | 0.0 | 8.0 | 0.00 | 0.00 | 0.00 | 24 | 1007.4 |
| 20260504194029 | 73 | 258 | 2.0 | 12.0 | 0.00 | 0.00 | 0.00 | 24 | 1007.6 |
| 20260504193101 | 74 | 231 | 4.0 | 7.0 | 0.00 | 0.00 | 0.00 | 24 | 1007.8 |
| 20260504192023 | 73 | 268 | 4.0 | 8.0 | 0.00 | 0.00 | 0.00 | 24 | 1007.9 |
| 20260504191036 | 72 | 195 | 1.0 | 9.0 | 0.00 | 0.00 | 0.00 | 26 | 1007.9 |
| 20260504190020 | 72 | 236 | 4.0 | 8.0 | 0.00 | 0.00 | 0.00 | 26 | 1008.0 |
| 20260504185031 | 73 | 239 | 3.0 | 10.0 | 0.00 | 0.00 | 0.00 | 27 | 1008.1 |
| 20260504184015 | 73 | 359 | 0.0 | 10.0 | 0.00 | 0.00 | 0.00 | 27 | 1008.1 |
| 20260504183027 | 73 | 229 | 0.0 | 2.0 | 0.00 | 0.00 | 0.00 | 28 | 1008.3 |
| 20260504182018 | 72 | 261 | 0.0 | 3.0 | 0.00 | 0.00 | 0.00 | 26 | 1008.4 |
| 20260504181029 | 73 | 359 | 0.0 | 0.0 | 0.00 | 0.00 | 0.00 | 27 | 1008.5 |
| 20260504180013 | 72 | 115 | 0.0 | 3.0 | 0.00 | 0.00 | 0.00 | 28 | 1008.6 |
| 20260504175025 | 72 | 203 | 0.0 | 3.0 | 0.00 | 0.00 | 0.00 | 29 | 1008.8 |
| 20260504174037 | 71 | 237 | 0.0 | 5.0 | 0.00 | 0.00 | 0.00 | 30 | 1008.8 |
| 20260504173021 | 70 | 243 | 0.0 | 3.0 | 0.00 | 0.00 | 0.00 | 31 | 1008.9 |
| 20260504172032 | 70 | 359 | 0.0 | 5.0 | 0.00 | 0.00 | 0.00 | 31 | 1008.9 |
| 20260504171015 | 70 | 261 | 1.0 | 4.0 | 0.00 | 0.00 | 0.00 | 32 | 1009.0 |
| 20260504151028 | 65 | 162 | 3.0 | 10.0 | 0.00 | 0.00 | 0.00 | 38 | 1009.3 |
| 20260504141014 | 63 | 156 | 0.0 | 7.0 | 0.00 | 0.00 | 0.00 | 40 | 1009.4 |